Home > Weather > New Orleans > Past weeks

Flag for U.S.A. Weather for the Past 2 Weeks in New Orleans, Louisiana, U.S.A.

Now
51 °F

Clear.


Feels Like: 48 °F
Forecast: 39 / 58 °F
Wind: 9 mph from Northwest

Location: Lakefront Airport

Current Time: Feb 6, 2016 at 10:52:54 PM

Latest Report: Feb 6, 2016 at 9:53 PM


Visibility: 10 mi

Pressure: 30.28 "Hg

Humidity: 61%

Dew point: 38 °F

Location of New OrleansLocation

Historic Weather in New Orleans — Graph

°F

New Orleans Temperature Yesterday

Maximum temperature yesterday: 50 °F (at 3:53 PM)
Minimum temperature yesterday: 41 °F (at 5:53 AM)
Average temperature yesterday: 46 °F

High & Low Weather Summary for the Past Weeks

 TemperatureHumidityPressure
High77 °F (Feb 2, 11:53 AM)100% (Jan 26, 3:04 AM)30.51 "Hg (Jan 26, 3:04 AM)
Low34 °F (Jan 24, 5:53 AM)31% (Feb 6, 1:53 PM)29.75 "Hg (Feb 2, 2:53 PM)
Average54 °F73%30.09 "Hg
* Reported Jan 22 8:53 PM — Feb 6 8:53 PM, New Orleans, Weather by CustomWeather, © 2016

Note: Actual official high and low records may vary slightly from our data, if they occured in-between our weather recording intervals... More about our weather records

Advertising

New Orleans Weather History for the Previous 24 Hours

 ConditionsComfort  
Time TempWeatherWind HumidityBarometerVisibility
8:53 PM
Sat, Feb 6
51 °FClear.7 mph54%30.28 "Hg10 mi
7:53 PM51 °FClear.8 mph50%30.27 "Hg10 mi
6:53 PM51 °FClear.3 mph41%30.26 "Hg10 mi
5:53 PM52 °FMostly cloudy.3 mph35%30.24 "Hg10 mi
4:53 PM52 °FPartly sunny.8 mph35%30.24 "Hg10 mi
3:53 PM53 °FPassing clouds.8 mph31%30.23 "Hg10 mi
2:53 PM54 °FSunny.7 mph34%30.24 "Hg10 mi
1:53 PM55 °FSunny.3 mph31%30.25 "Hg10 mi
12:53 PM54 °FSunny.8 mph34%30.28 "Hg10 mi
11:53 AM53 °FSunny.13 mph35%30.29 "Hg10 mi
10:53 AM52 °FSunny.10 mph38%30.34 "Hg10 mi
9:53 AM51 °FSunny.9 mph41%30.35 "Hg10 mi
8:53 AM49 °FPassing clouds.10 mph55%30.33 "Hg10 mi
7:53 AM46 °FSunny.21 mph73%30.28 "Hg10 mi
6:53 AM46 °FSunny.8 mph71%30.34 "Hg10 mi
5:53 AM47 °FClear.8 mph66%30.34 "Hg10 mi
4:53 AM46 °FClear.6 mph63%30.34 "Hg10 mi
3:53 AM47 °FClear.7 mph56%30.34 "Hg10 mi
2:53 AM46 °FClear.6 mph58%30.35 "Hg10 mi
1:53 AM47 °FClear.6 mph52%30.35 "Hg10 mi
12:53 AM47 °FClear.6 mph59%30.35 "Hg10 mi
11:53 PM
Fri, Feb 5
49 °FClear.9 mph46%30.36 "Hg10 mi
10:53 PM50 °FClear.12 mph41%30.37 "Hg10 mi
Weather by CustomWeather, © 2016

See weather overviewHow to use our weather pages